When you browse on this site, cookies collect data to enhance your experience and personalize the content and advertising you see.
Visit our Privacy Policy to learn more. By continuing to use the site, you agree to this use of cookies and data.
  • In Lithuania
  • List of Countries
  • For 7 days
  • Water Temperature
  • Satellite Maps
  • Weather Map
  • Weather Widgets
  • user-avatar
    Login

    Hourly Weather Cam Ranh

    Today, 18 November, Sunday

    Time Temperature Precipitation Wind Pressure Humidity
    00:00 +26°C° 20.9 mm 8 mps 753 mmHg 96%
    01:00 +24°C° 0 mm 6 mps 751 mmHg 93%
    02:00 +26°C° 37.5 mm 7 mps 751 mmHg 95%
    03:00 +26°C° 37.5 mm 8 mps 751 mmHg 96%
    04:00 +26°C° 37.5 mm 9 mps 751 mmHg 97%
    05:00 +26°C° 16.8 mm 8 mps 751 mmHg 97%
    06:00 +26°C° 16.8 mm 6 mps 752 mmHg 97%
    07:00 +26°C° 0 mm 5 mps 753 mmHg 95%
    08:00 +26°C° 16.6 mm 6 mps 752 mmHg 96%
    09:00 +26°C° 16.6 mm 6 mps 752 mmHg 96%
    10:00 +26°C° 16.6 mm 7 mps 752 mmHg 97%
    11:00 +27°C° 2.1 mm 6 mps 752 mmHg 97%
    12:00 +27°C° 2.1 mm 6 mps 752 mmHg 96%
    13:00 +27°C° 2.1 mm 5 mps 752 mmHg 96%
    14:00 +27°C° 0.2 mm 4 mps 752 mmHg 95%
    15:00 +27°C° 0.2 mm 3 mps 752 mmHg 94%
    16:00 +27°C° 0.2 mm 2 mps 752 mmHg 93%
    17:00 +27°C° 0.2 mm 2 mps 753 mmHg 94%
    18:00 +26°C° 0.2 mm 2 mps 753 mmHg 94%
    19:00 +26°C° 0.2 mm 1 mps 753 mmHg 95%
    20:00 +26°C° 0.3 mm 1 mps 754 mmHg 95%
    21:00 +26°C° 0.3 mm 1 mps 754 mmHg 95%
    22:00 +25°C° 0.3 mm 1 mps 754 mmHg 95%
    23:00 +25°C° 0.5 mm 1 mps 754 mmHg 95%

    Tomorrow, 19 November, Monday

    Time Temperature Precipitation Wind Pressure Humidity
    00:00 +25°C° 0.5 mm 1 mps 754 mmHg 95%
    01:00 +25°C° 0.5 mm 1 mps 754 mmHg 95%
    02:00 +25°C° 0.2 mm 1 mps 754 mmHg 95%
    03:00 +25°C° 0.2 mm 1 mps 754 mmHg 95%
    04:00 +25°C° 0.2 mm 1 mps 754 mmHg 95%
    05:00 +25°C° 0 mm 2 mps 754 mmHg 94%
    06:00 +26°C° 0 mm 2 mps 755 mmHg 93%
    07:00 +26°C° 0 mm 2 mps 755 mmHg 92%
    08:00 +28°C° 0 mm 2 mps 755 mmHg 84%
    09:00 +30°C° 0 mm 2 mps 755 mmHg 75%
    10:00 +32°C° 0 mm 2 mps 756 mmHg 67%
    11:00 +33°C° 0 mm 3 mps 755 mmHg 66%
    12:00 +34°C° 0 mm 3 mps 755 mmHg 65%
    13:00 +34°C° 0 mm 3 mps 754 mmHg 64%
    14:00 +33°C° 0 mm 3 mps 754 mmHg 69%
    15:00 +32°C° 0 mm 4 mps 753 mmHg 74%
    16:00 +30°C° 0 mm 4 mps 753 mmHg 79%
    17:00 +29°C° 0 mm 4 mps 754 mmHg 84%
    18:00 +28°C° 0 mm 3 mps 754 mmHg 89%
    19:00 +26°C° 0 mm 3 mps 755 mmHg 94%
    20:00 +26°C° 0 mm 3 mps 755 mmHg 94%
    21:00 +26°C° 0 mm 3 mps 755 mmHg 94%
    22:00 +26°C° 0 mm 3 mps 756 mmHg 94%
    23:00 +25°C° 0.1 mm 3 mps 755 mmHg 93%

    Day after tomorrow, 20 November, Tuesday

    Time Temperature Precipitation Wind Pressure Humidity
    00:00 +25°C° 0.1 mm 3 mps 755 mmHg 92%
    01:00 +25°C° 0.1 mm 3 mps 755 mmHg 92%
    02:00 +25°C° 0.1 mm 3 mps 754 mmHg 90%
    03:00 +24°C° 0.1 mm 3 mps 754 mmHg 89%
    04:00 +24°C° 0.1 mm 3 mps 754 mmHg 88%
    05:00 +25°C° 0.2 mm 3 mps 754 mmHg 86%
    06:00 +26°C° 0.2 mm 3 mps 755 mmHg 84%
    07:00 +26°C° 0.2 mm 4 mps 755 mmHg 82%
    08:00 +28°C° 0 mm 4 mps 755 mmHg 76%
    09:00 +30°C° 0 mm 4 mps 755 mmHg 70%
    10:00 +33°C° 0 mm 4 mps 755 mmHg 64%
    11:00 +33°C° 0 mm 4 mps 755 mmHg 64%
    12:00 +33°C° 0 mm 4 mps 754 mmHg 63%
    13:00 +34°C° 0 mm 5 mps 753 mmHg 63%
    14:00 +33°C° 0 mm 5 mps 753 mmHg 68%
    15:00 +32°C° 0 mm 5 mps 752 mmHg 72%
    16:00 +30°C° 0 mm 5 mps 752 mmHg 77%
    17:00 +29°C° 0 mm 5 mps 752 mmHg 82%
    18:00 +28°C° 0 mm 5 mps 753 mmHg 88%
    19:00 +26°C° 0 mm 5 mps 754 mmHg 93%
    20:00 +26°C° 0 mm 5 mps 754 mmHg 93%
    21:00 +26°C° 0 mm 5 mps 755 mmHg 93%
    22:00 +26°C° 0 mm 5 mps 755 mmHg 93%
    23:00 +26°C° 0 mm 4 mps 754 mmHg 92%

    21 November, Wednesday

    Time Temperature Precipitation Wind Pressure Humidity
    00:00 +25°C° 0 mm 4 mps 754 mmHg 91%
    01:00 +25°C° 0 mm 4 mps 754 mmHg 90%
    02:00 +25°C° 0 mm 4 mps 753 mmHg 87%
    03:00 +25°C° 0 mm 4 mps 753 mmHg 85%
    04:00 +25°C° 0 mm 4 mps 753 mmHg 83%
    05:00 +25°C° 0 mm 4 mps 753 mmHg 82%
    06:00 +25°C° 0 mm 4 mps 754 mmHg 81%
    07:00 +26°C° 0 mm 4 mps 754 mmHg 80%
    08:00 +28°C° 0 mm 4 mps 754 mmHg 75%
    09:00 +29°C° 0 mm 5 mps 754 mmHg 70%
    10:00 +32°C° 0 mm 5 mps 755 mmHg 66%
    11:00 +33°C° 0 mm 5 mps 754 mmHg 63%
    12:00 +33°C° 0 mm 5 mps 753 mmHg 61%
    13:00 +34°C° 0 mm 6 mps 752 mmHg 59%
    14:00 +33°C° 0 mm 6 mps 752 mmHg 63%
    15:00 +33°C° 0 mm 6 mps 752 mmHg 68%
    16:00 +32°C° 0 mm 6 mps 751 mmHg 73%
    17:00 +29°C° 0 mm 6 mps 752 mmHg 78%
    18:00 +28°C° 0 mm 6 mps 753 mmHg 84%
    19:00 +27°C° 0 mm 6 mps 753 mmHg 90%
    20:00 +26°C° 0 mm 6 mps 753 mmHg 89%
    21:00 +26°C° 0 mm 6 mps 754 mmHg 89%
    22:00 +26°C° 0 mm 6 mps 754 mmHg 89%
    23:00 +26°C° 0 mm 6 mps 753 mmHg 88%

    22 November, Thursday

    Time Temperature Precipitation Wind Pressure Humidity
    00:00 +26°C° 0 mm 6 mps 753 mmHg 86%
    01:00 +26°C° 0 mm 6 mps 753 mmHg 85%
    02:00 +26°C° 0 mm 6 mps 752 mmHg 84%
    03:00 +26°C° 0 mm 6 mps 752 mmHg 83%
    04:00 +26°C° 0 mm 6 mps 752 mmHg 82%
    05:00 +26°C° 0 mm 6 mps 753 mmHg 82%
    06:00 +26°C° 0 mm 6 mps 753 mmHg 81%
    07:00 +27°C° 0 mm 6 mps 754 mmHg 81%
    08:00 +28°C° 0.1 mm 6 mps 754 mmHg 75%
    09:00 +30°C° 0.1 mm 6 mps 754 mmHg 69%
    10:00 +32°C° 0.1 mm 6 mps 754 mmHg 63%
    11:00 +32°C° 0.3 mm 6 mps 753 mmHg 64%
    12:00 +33°C° 0.3 mm 7 mps 752 mmHg 64%
    13:00 +33°C° 0.3 mm 7 mps 751 mmHg 65%
    14:00 +32°C° 0.5 mm 7 mps 751 mmHg 71%
    15:00 +30°C° 0.5 mm 7 mps 751 mmHg 77%
    16:00 +29°C° 0.5 mm 7 mps 751 mmHg 83%
    17:00 +28°C° 0.3 mm 7 mps 751 mmHg 85%
    18:00 +27°C° 0.3 mm 7 mps 751 mmHg 86%
    19:00 +27°C° 0.3 mm 7 mps 751 mmHg 87%
    20:00 +26°C° 1.4 mm 7 mps 751 mmHg 89%
    21:00 +26°C° 1.4 mm 7 mps 750 mmHg 90%
    22:00 +26°C° 1.4 mm 7 mps 750 mmHg 91%
    23:00 +26°C° 3.5 mm 8 mps 749 mmHg 92%

    23 November, Friday

    Time Temperature Precipitation Wind Pressure Humidity
    00:00 +26°C° 3.5 mm 8 mps 748 mmHg 93%
    01:00 +26°C° 3.5 mm 8 mps 747 mmHg 93%
    02:00 +26°C° 13.1 mm 10 mps 745 mmHg 93%
    03:00 +26°C° 13.1 mm 11 mps 744 mmHg 93%
    04:00 +26°C° 13.1 mm 12 mps 743 mmHg 93%
    05:00 +26°C° 11.9 mm 14 mps 743 mmHg 93%
    06:00 +26°C° 11.9 mm 15 mps 743 mmHg 92%
    07:00 +25°C° 11.9 mm 17 mps 742 mmHg 92%
    08:00 +25°C° 24 mm 18 mps 742 mmHg 91%
    09:00 +25°C° 24 mm 19 mps 743 mmHg 91%
    10:00 +25°C° 24 mm 21 mps 743 mmHg 91%
    11:00 +25°C° 20.6 mm 21 mps 742 mmHg 91%
    12:00 +25°C° 20.6 mm 22 mps 741 mmHg 90%
    13:00 +25°C° 20.6 mm 22 mps 741 mmHg 90%
    14:00 +25°C° 13.2 mm 21 mps 741 mmHg 91%
    15:00 +25°C° 13.2 mm 20 mps 742 mmHg 91%
    16:00 +25°C° 13.2 mm 19 mps 742 mmHg 92%
    17:00 +25°C° 3.8 mm 18 mps 743 mmHg 92%
    18:00 +25°C° 3.8 mm 17 mps 744 mmHg 92%
    19:00 +26°C° 3.8 mm 16 mps 745 mmHg 92%
    20:00 +26°C° 0.5 mm 15 mps 746 mmHg 90%
    21:00 +26°C° 0.5 mm 14 mps 746 mmHg 88%
    22:00 +27°C° 0.5 mm 14 mps 747 mmHg 87%
    23:00 +26°C° 0.2 mm 13 mps 747 mmHg 87%
    Show more